Weather in Santa Cruz del Quiché

Guatemala     15°01′45″N   91°08′59″W
temp.,
°C
wind,
m/s
gust,
m/s
humid.,
%
clouds,
%
prec.,
mm/h
press.,
hPa
HPBL,
m
23 april, fri
fri2300:00+12ene019781 0.2 1019114
03:00+11wsw119043 0.0 1018164
06:00+10sw226828 0.0 101914
09:00+20ne112311 0.0 1017751
12:00+24ene33195 0.0 10141823
15:00+24ene44239 0.0 10102309
18:00+18ese35475 0.0 1013123
21:00+14s228336 0.0 101718
24 april, sat
sat2400:00+12ssw2289100 0.0 101724
03:00+11ssw228269 0.0 101623
06:00+11ssw227977 0.0 101833
09:00+20ssw124671 0.0 1016978
12:00+25ne222872 0.0 10122169
15:00+25ene34275 0.0 10092576
18:00+19ese255765 0.1 1012342
21:00+15s1281100 0.1 101632
25 april, sun
sun2500:00+14ene1187100 0.2 101612
03:00+14nne1191100 0.4 101536
06:00+13nw0193100 0.4 101712
09:00+19nne2357100 0.0 10171034
12:00+23ne3537100 0.0 10141932
15:00+24ne663496 0.0 10112412
18:00+18ne3656100 0.0 1014265
21:00+14ne1174100 0.0 101812
26 april, mon
mon2600:00+13wsw118297 0.0 101712
03:00+12w118433 0.0 101610
06:00+12sw118610 0.0 101811
09:00+20ne22475 0.0 10171133
12:00+24ne44295 0.0 10142090
15:00+25ene54285 0.0 10102379
18:00+20e364815 0.0 1012222
21:00+15ene11835 0.0 101711
27 april, tue
tue2700:00+13ese01944 0.1 101711
03:00+13sw119621 0.1 101611
06:00+12sw11955 0.1 101711
09:00+20ne21521 0.0 10161151
12:00+25ne43302 0.0 10122186
15:00+25ene54284 0.1 10092532
18:00+20e36466 0.1 1012228
21:00+15sse117526 0.0 101617